This is the latest recevied weather packets stored in our database for station/object KC7RJK-2. If no packets are shown the sender has not sent any weather packets the latest 10 day(s).
| Time | Temp. | Humidity | Pressure | Rain* | Wind** | Luminosity | Snow |
|---|---|---|---|---|---|---|---|
| 1777572609 | 17.78° C | 66% | 1018.8 hPa | 0 mm | - | - | - |
| 1777572013 | 16.67° C | 67% | 1018.8 hPa | 0 mm | - | - | - |
| 1777571411 | 16.67° C | 69% | 1018.8 hPa | 0 mm | - | - | - |
| 1777570811 | 16.11° C | 70% | 1018.9 hPa | 0 mm | - | - | - |
| 1777570209 | 15.56° C | 69% | 1019 hPa | 0 mm | - | - | - |
| 1777569609 | 15.56° C | 70% | 1019.1 hPa | 0 mm | - | - | - |
| 1777569010 | 15° C | 71% | 1019 hPa | 0 mm | - | - | - |
| 1777568412 | 14.44° C | 74% | 1019.1 hPa | 0 mm | - | - | - |
| 1777567808 | 13.89° C | 75% | 1019.2 hPa | 0 mm | - | - | - |
| 1777567208 | 13.33° C | 76% | 1019.2 hPa | 0 mm | - | - | - |
| 1777566612 | 13.33° C | 76% | 1019.2 hPa | 0 mm | - | - | - |
| 1777566011 | 12.78° C | 80% | 1019.2 hPa | 0 mm | - | - | - |
| 1777565408 | 12.22° C | 80% | 1019.3 hPa | 0 mm | - | - | - |
| 1777564812 | 12.22° C | 81% | 1019.4 hPa | 0 mm | - | - | - |
| 1777564210 | 11.67° C | 84% | 1019.5 hPa | 0 mm | - | - | - |
| 1777563610 | 11.11° C | 88% | 1019.6 hPa | 0 mm | - | - | - |
| 1777563011 | 10.56° C | 91% | 1019.6 hPa | 0 mm | - | - | - |
| 1777562409 | 10° C | 93% | 1019.7 hPa | 0 mm | - | - | - |
| 1777561811 | 9.44° C | 94% | 1019.7 hPa | 0 mm | - | - | - |
| 1777561209 | 8.89° C | 95% | 1019.8 hPa | 0 mm | - | - | - |
| 1777560609 | 8.89° C | 95% | 1019.8 hPa | 0 mm | - | - | - |
| 1777560010 | 8.33° C | 96% | 1019.6 hPa | 0 mm | - | - | - |
| 1777559410 | 7.78° C | 96% | 1019.6 hPa | 0 mm | - | - | - |
| 1777558809 | 7.22° C | 96% | 1019.5 hPa | 0 mm | - | - | - |
| 1777558209 | 6.67° C | 95% | 1019.6 hPa | 0 mm | - | - | - |
* Rain latest hour (hover to see other rain measurements)
** Current wind speed in m/s (hover to see current wind gust speed)